Regional Weather Roundup
Issued by NWS

Home | Current Version | Previous Version | Graphics & Text | Print | Product List | Glossary On
Versions: 1 2 3 4 5 6 7 8 9 10 11 12 13 14 15 16 17 18 19 20 21 22 23 24 25 26 27 28 29 30 31 32 33 34 35 36 37 38 39 40 41 42 43 44 45 46 47 48 49 50
453
ASUS44 KLIX 011511
RWRLA
LOUISIANA WEATHER ROUNDUP
NATIONAL WEATHER SERVICE NEW ORLEANS LA
1000 AM CDT WED APR 01 2015

NOTE: "FAIR" INDICATES FEW OR NO CLOUDS BELOW 12,000 FEET WITH NO
      SIGNIFICANT WEATHER AND/OR OBSTRUCTIONS TO VISIBILITY.
      SKY/WX - SKY CONDITION AND SIGNIFICANT WEATHER.
      TMP - AIR TEMPERATURE.    DP   - DEWPOINT TEMPERATURE.
      RH  - RELATIVE HUMIDITY.  PRES - PRESSURE.
      HX  - HEAT INDEX.         WCI  - WIND CHILL INDEX.

*  THESE STATIONS ARE NOT NWS OR FAA STATIONS AND ARE NOT UNDER
   NWS QUALITY CONTROL.

LAZ040-048-061>063-065-066-069-011600-
SOUTHEAST LOUISIANA

CITY           SKY/WX    TMP DP  RH WIND       PRES   REMARKS
N.O. AUDUBON   NOT AVBL
N.O. INTL ARPT MOSUNNY   75  64  68 SW3       30.10R
N.O. LAKEFRONT SUNNY     75  65  70 CALM      30.12R
SLIDELL        MOSUNNY   74  65  73 SW6       30.11R
BATON ROUGE    MOSUNNY   73  66  78 S3        30.09R
BOOTHVILLE     MOSUNNY   74  68  81 E6        30.13R
BELLE CHASSE   PTSUNNY   74  65  73 CALM      30.11R
BOGALUSA*        N/A     67  64  90 CALM      30.13R FOG
GALLIANO*      PTSUNNY   76  69  80 CALM      30.11R
NEW ROADS*     PTSUNNY   67  66  97 CALM      30.09R
GONZALES*      FAIR      75  69  80 SW7       30.09R
HAMMOND*       MOSUNNY   73  64  73 CALM      30.11R
HOUMA*         PTSUNNY   72  66  83 S3        30.10R
PORT FOURCHON* PTSUNNY   73  68  83 E6        30.14R

$$

LAZ041-044-053-054-011600-
SOUTHWEST LOUISIANA

CITY           SKY/WX    TMP DP  RH WIND       PRES   REMARKS
LAKE CHARLES   PTSUNNY   72  69  90 S7        30.05R
LAFAYETTE      PTSUNNY   74  68  81 S6        30.08R HAZE
PATTERSON      PTSUNNY   73  66  78 S6        30.10R
SALT POINT       N/A     75  67  76 VRB3      30.07R
NEW IBERIA     MOSUNNY   76  68  76 S8        30.09R
CHENAULT AIRPK PTSUNNY   72  70  94 S8        30.06R

$$

LAZ027-028-011600-
CENTRAL LOUISIANA

CITY           SKY/WX    TMP DP  RH WIND       PRES   REMARKS
FORT POLK      CLOUDY    70  66  88 S10       30.05R
ALEXANDRIA INT CLOUDY    72  66  81 S9        30.04R
ALEXANDRIA     PTSUNNY   71  65  81 VRB3      30.06R

$$

LAZ001-002-011600-
NORTHWEST LOUISIANA

CITY           SKY/WX    TMP DP  RH WIND       PRES   REMARKS
SHREVEPORT     PTSUNNY   72  66  81 S8        29.99R
BARKSDALE AFB  CLOUDY    70  66  85 SE10      30.00R
DTN SHREVEPORT PTSUNNY   70  65  84 S8        30.00R

$$

LAZ014-016-011600-
NORTHEAST LOUISIANA

CITY           SKY/WX    TMP DP  RH WIND       PRES   REMARKS
MONROE         PTSUNNY   72  65  78 SW6       30.05R
TALLULAH       CLOUDY    70  63  78 VRB6      30.08R

$$




USA.gov is the U.S. government's official web portal to all federal, state and local government web resources and services.